Home   Weather   Township of Washington   Past weeks
Flag for USA

Past Weather in Township of Washington, Kansas, USA — Yesterday and Last 2 Weeks

Now
79 °F

Sunny.


Feels Like: 82 °F
Forecast: 98 / 78 °F
Wind: 9 mph from Southwest

Location: Hebron Municipal Airport

Current Time: Jul 19, 2019 at 7:22:05 am

Latest Report: Jul 19, 2019 at 6:35 am


Visibility: 10 mi

Pressure: 29.74 "Hg

Humidity: 71%

Dew Point: 69 °F

Location of Township of WashingtonLocation

Past Weather in Township of Washington — Graph

°F

Township of Washington Temperature Yesterday

Maximum temperature yesterday: 97 °F (at 4:35 pm)
Minimum temperature yesterday: 76 °F (at 5:35 am)
Average temperature yesterday: 87 °F

High & Low Weather Summary for the Past Weeks

 TemperatureHumidityPressure
High98 °F (Jul 17, 4:35 pm)98% (Jul 7, 2:35 am)30.20 "Hg (Jul 7, 2:35 am)
Low62 °F (Jul 12, 6:15 am)41% (Jul 17, 5:15 pm)29.68 "Hg (Jul 18, 6:35 pm)
Average78 °F75%29.98 "Hg
* Reported Jul 4 5:15 am — Jul 19 5:55 am, Township of Washington. Weather by CustomWeather, © 2019

Note: Actual official high and low records may vary slightly from our data, if they occured in-between our weather recording intervals... More about our weather records

Advertising

Township of Washington Weather History for the Previous 24 Hours

Scroll right to see more
 ConditionsComfort  
Time TempWeatherWind HumidityBarometerVisibility
5:55 am
Fri, Jul 19
80 °FClear.10 mph69%29.74 "Hg10 mi
5:35 am80 °FClear.9 mph69%29.74 "Hg10 mi
5:15 am80 °FClear.8 mph69%29.74 "Hg10 mi
4:55 am81 °FClear.9 mph68%29.75 "Hg10 mi
4:35 am81 °FClear.12 mph67%29.75 "Hg10 mi
4:15 am81 °FClear.12 mph66%29.75 "Hg10 mi
3:55 am82 °FClear.12 mph65%29.75 "Hg10 mi
3:35 am82 °FClear.12 mph64%29.75 "Hg10 mi
3:15 am83 °FClear.12 mph63%29.75 "Hg10 mi
2:55 am83 °FClear.13 mph62%29.75 "Hg10 mi
2:35 am84 °FClear.13 mph61%29.75 "Hg10 mi
2:15 am85 °FClear.12 mph59%29.75 "Hg10 mi
1:55 am85 °FClear.13 mph59%29.75 "Hg10 mi
1:35 am85 °FClear.10 mph60%29.75 "Hg10 mi
1:15 am84 °FClear.9 mph62%29.75 "Hg10 mi
12:55 am83 °FClear.9 mph65%29.75 "Hg10 mi
12:35 am83 °FClear.8 mph67%29.74 "Hg10 mi
12:15 am84 °FClear.9 mph65%29.74 "Hg10 mi
11:55 pm
Thu, Jul 18
86 °FClear.9 mph60%29.73 "Hg10 mi
11:35 pm87 °FClear.9 mph59%29.73 "Hg10 mi
11:15 pm87 °FClear.10 mph58%29.73 "Hg10 mi
10:55 pm88 °FClear.12 mph57%29.73 "Hg10 mi
10:35 pm87 °FClear.10 mph60%29.72 "Hg10 mi
10:15 pm85 °FClear.8 mph68%29.71 "Hg10 mi
9:55 pm85 °FClear.6 mph69%29.71 "Hg10 mi
9:15 pm85 °FClear.5 mph71%29.70 "Hg10 mi
8:55 pm86 °FSunny.3 mph72%29.69 "Hg10 mi
8:10 pm91 °FSunny.5 mph62%29.69 "Hg10 mi
7:35 pm93 °FSunny.8 mph57%29.69 "Hg10 mi
7:15 pm94 °FSunny.6 mph56%29.69 "Hg10 mi
6:55 pm95 °FSunny.5 mph55%29.68 "Hg10 mi
6:35 pm96 °FSunny.7 mph51%29.68 "Hg10 mi
6:15 pm96 °FSunny.7 mph50%29.69 "Hg10 mi
5:55 pm97 °FSunny.8 mph50%29.69 "Hg10 mi
5:15 pm97 °FSunny.8 mph48%29.70 "Hg10 mi
4:55 pm97 °FSunny.12 mph46%29.70 "Hg10 mi
4:35 pm97 °FSunny.9 mph46%29.70 "Hg10 mi
4:15 pm97 °FSunny.10 mph48%29.70 "Hg10 mi
3:55 pm96 °FSunny.13 mph49%29.71 "Hg10 mi
3:35 pm96 °FSunny.13 mph45%29.71 "Hg10 mi
3:15 pm96 °FSunny.14 mph47%29.71 "Hg10 mi
2:55 pm95 °FSunny.15 mph48%29.71 "Hg10 mi
2:35 pm94 °FSunny.12 mph49%29.71 "Hg10 mi
2:15 pm94 °FSunny.12 mph49%29.72 "Hg10 mi
1:15 pm93 °FSunny.8 mph50%29.73 "Hg10 mi
12:55 pm92 °FSunny.10 mph57%29.74 "Hg10 mi
12:35 pm91 °FSunny.9 mph57%29.74 "Hg10 mi
12:15 pm90 °FSunny.9 mph59%29.74 "Hg10 mi
11:55 am90 °FSunny.10 mph59%29.75 "Hg10 mi
11:35 am89 °FSunny.9 mph58%29.76 "Hg10 mi
11:15 am88 °FSunny.8 mph58%29.76 "Hg10 mi
10:55 am87 °FSunny.10 mph61%29.76 "Hg10 mi
10:35 am86 °FSunny.9 mph62%29.76 "Hg10 mi
10:15 am85 °FSunny.9 mph63%29.76 "Hg10 mi
9:55 am84 °FSunny.12 mph64%29.77 "Hg10 mi
9:35 am84 °FSunny.8 mph66%29.77 "Hg10 mi
9:15 am83 °FSunny.10 mph66%29.78 "Hg10 mi
8:55 am82 °FSunny.8 mph67%29.78 "Hg10 mi
8:35 am82 °FSunny.6 mph69%29.79 "Hg10 mi
7:55 am78 °FSunny.5 mph74%29.79 "Hg10 mi
7:35 am77 °FSunny.3 mph78%29.78 "Hg10 mi
Weather by CustomWeather, © 2019

See weather overview